Location: Campillo
(40.8621°N, 4.2488°W)
Time: 11:08:19
(UTC+00:00)

Cosmos 1437 Rocket - Pass Details

Date: 11 May 2021
Orbit: 501 x 565 km, 81.2° (Epoch: 13 June)

Event Time Altitude Azimuth Distance (km) Brightness Sun altitude
Rises 19:55:38 0° 182° (S) 2,622 6.0 -6.1°
Reaches altitude 10° 19:57:44 10° 180° (S) 1,749 5.1 -6.5°
Maximum altitude 20:01:33 68° 97° (E) 574 2.7 -7.1°
Drops below altitude 10° 20:05:29 10° 15° (NNE) 1,802 5.7 -7.7°
Sets 20:07:41 0° 13° (NNE) 2,709 6.6 -8.1°
